Location: Dugenta
(41.1333°N, 14.4500°E)
Time: 19:49:03
(UTC+00:00)

Cosmos 1515 - Pass Details

Date: 03 March 2021
Orbit: 504 x 516 km, 82.5° (Epoch: 18 April)

Event Time Altitude Azimuth Distance (km) Brightness Sun altitude
Rises 17:55:30 0° 350° (N) 2,643 7.5 -12.1°
Reaches altitude 10° 17:57:39 10° 349° (N) 1,749 6.5 -12.5°
Maximum altitude 18:01:29 78° 265° (W) 531 3.8 -13.2°
Drops below altitude 10° 18:05:16 10° 178° (S) 1,728 6.3 -13.9°
Sets 18:07:22 0° 177° (S) 2,607 7.2 -14.3°
